User: anonymous   Login
Location: Unspecified
(0.0000°N, 0.0000°E)
Time: 07:17:00
(UTC+00:00)
Language:

Geosat - Orbit

View from above orbital plane
View from above orbital plane
View from above satellite
View from above satellite

Ground track
Ground track

The orbit data is extracted from the following two-line orbital elements,

1 15595U 85021A   17178.93201373 -.00000078 +00000-0 +18816-4 0  9997
2 15595 108.0396 118.1371 0001943 298.9214 101.8016 14.38026711691666
Epoch (UTC): 27 June 2017 22:22:05
Eccentricity: 0.0001943
inclination: 108.0396°
perigee height: 763 km
apogee height: 766 km
right ascension of ascending node: 118.1371°
argument of perigee: 298.9214°
revolutions per day: 14.38026711
mean anomaly at epoch: 101.8016°
orbit number at epoch: 69166

The dashed part of the orbit path shows where the satellite is in the earth's shadow,  

DLR